AAL1399 KLAS-KLAX

Flight info

Callsign AAL1399
Flight time 0h 44m
Altitude 28000
Route RADYR2 BLAQQ SHTNR ANJLL4
Aircraft A320/M-SDE3FGHIRWY/LB1

Departure

Time 2026-05-04 03:22
Airport Harry Reid International Airport (KLAS)

Arrival

Time 2026-05-04 04:06
Airport Los Angeles International Airport (KLAX)
Time Latitude Longitude Altitude Speed Heading
2026-05-04 03:02 36.08027 -115.14725 2098 ft 0 kts 59°
2026-05-04 03:14 36.08019 -115.14741 2097 ft 4 kts 64°
2026-05-04 03:14 36.08010 -115.14772 2097 ft 4 kts 87°
2026-05-04 03:14 36.08015 -115.14798 2097 ft 3 kts 148°
2026-05-04 03:14 36.08019 -115.14801 2097 ft 0 kts 155°
2026-05-04 03:17 36.08017 -115.14800 2097 ft 3 kts 155°
2026-05-04 03:17 36.07981 -115.14779 2097 ft 7 kts 155°
2026-05-04 03:18 36.07901 -115.14734 2097 ft 17 kts 156°
2026-05-04 03:18 36.07846 -115.14611 2096 ft 19 kts 94°
2026-05-04 03:18 36.07834 -115.14438 2096 ft 21 kts 95°
2026-05-04 03:18 36.07826 -115.14248 2095 ft 23 kts 89°
2026-05-04 03:19 36.07826 -115.14036 2093 ft 26 kts 90°
2026-05-04 03:19 36.07828 -115.13807 2093 ft 27 kts 89°
2026-05-04 03:19 36.07827 -115.13567 2092 ft 29 kts 90°
2026-05-04 03:19 36.07827 -115.13321 2088 ft 27 kts 90°
2026-05-04 03:20 36.07829 -115.13072 2081 ft 31 kts 89°
2026-05-04 03:20 36.07828 -115.12783 2069 ft 36 kts 90°
2026-05-04 03:20 36.07828 -115.12508 2059 ft 28 kts 89°
2026-05-04 03:20 36.07826 -115.12292 2054 ft 25 kts 92°
2026-05-04 03:21 36.07745 -115.12145 2049 ft 19 kts 135°
2026-05-04 03:21 36.07641 -115.12170 2054 ft 15 kts 253°
2026-05-04 03:21 36.07642 -115.12355 2053 ft 44 kts 269°
2026-05-04 03:21 36.07641 -115.13000 2075 ft 103 kts 270°
2026-05-04 03:22 36.07640 -115.14067 2095 ft 144 kts 269°
2026-05-04 03:22 36.07630 -115.15441 2233 ft 169 kts 265°
2026-05-04 03:22 36.07624 -115.16911 2835 ft 172 kts 266°
2026-05-04 03:22 36.07625 -115.18381 3500 ft 170 kts 266°
2026-05-04 03:23 36.07623 -115.19872 4001 ft 181 kts 266°
2026-05-04 03:23 36.07514 -115.21503 4182 ft 202 kts 257°
2026-05-04 03:23 36.07254 -115.23296 4450 ft 223 kts 256°
2026-05-04 03:23 36.06807 -115.25161 4947 ft 231 kts 237°
2026-05-04 03:24 36.05613 -115.26515 5505 ft 246 kts 206°
2026-05-04 03:24 36.03975 -115.27316 6135 ft 258 kts 202°
2026-05-04 03:24 36.02272 -115.28077 6908 ft 262 kts 201°
2026-05-04 03:24 36.00548 -115.28838 7697 ft 265 kts 200°
2026-05-04 03:25 35.98776 -115.29534 7988 ft 269 kts 194°
2026-05-04 03:25 35.96961 -115.30007 8811 ft 270 kts 192°
2026-05-04 03:25 35.95115 -115.30455 9694 ft 272 kts 191°
2026-05-04 03:25 35.93236 -115.30902 10326 ft 282 kts 191°
2026-05-04 03:26 35.91233 -115.31380 10550 ft 305 kts 191°
2026-05-04 03:26 35.89099 -115.31893 10965 ft 318 kts 191°
2026-05-04 03:26 35.86909 -115.32423 11622 ft 323 kts 191°
2026-05-04 03:26 35.84695 -115.32964 12354 ft 326 kts 191°
2026-05-04 03:27 35.82454 -115.33510 13061 ft 330 kts 191°
2026-05-04 03:27 35.80194 -115.34065 13779 ft 333 kts 191°
2026-05-04 03:27 35.77909 -115.34627 14392 ft 336 kts 191°
2026-05-04 03:27 35.75608 -115.35192 15010 ft 339 kts 192°
2026-05-04 03:28 35.73283 -115.35763 15620 ft 342 kts 192°
2026-05-04 03:28 35.70940 -115.36340 16229 ft 345 kts 193°
2026-05-04 03:28 35.68576 -115.36923 16852 ft 348 kts 193°
2026-05-04 03:28 35.66192 -115.37507 17469 ft 351 kts 193°
2026-05-04 03:29 35.63789 -115.38092 18087 ft 354 kts 194°
2026-05-04 03:29 35.61355 -115.38620 18657 ft 358 kts 189°
2026-05-04 03:29 35.58843 -115.38646 19250 ft 364 kts 181°
2026-05-04 03:29 35.56307 -115.38456 19859 ft 366 kts 182°
2026-05-04 03:30 35.53786 -115.38272 20451 ft 368 kts 183°
2026-05-04 03:30 35.51221 -115.38087 21036 ft 370 kts 184°
2026-05-04 03:30 35.48645 -115.37903 21599 ft 372 kts 184°
2026-05-04 03:30 35.46064 -115.37827 22156 ft 368 kts 191°
2026-05-04 03:31 35.43565 -115.38332 22704 ft 361 kts 202°
2026-05-04 03:31 35.41250 -115.39420 23300 ft 354 kts 213°
2026-05-04 03:31 35.39073 -115.40817 23737 ft 355 kts 214°
2026-05-04 03:31 35.36875 -115.42234 24107 ft 359 kts 214°
2026-05-04 03:32 35.34659 -115.43662 24488 ft 362 kts 214°
2026-05-04 03:32 35.33180 -115.44612 24743 ft 364 kts 213°
2026-05-04 03:32 35.30929 -115.46052 25134 ft 366 kts 213°
2026-05-04 03:32 35.28659 -115.47498 25523 ft 369 kts 214°
2026-05-04 03:33 35.26375 -115.48949 25901 ft 371 kts 214°
2026-05-04 03:33 35.24074 -115.50410 26264 ft 374 kts 214°
2026-05-04 03:33 35.21756 -115.51882 26640 ft 377 kts 214°
2026-05-04 03:33 35.19423 -115.53365 27009 ft 379 kts 214°
2026-05-04 03:34 35.17074 -115.54859 27365 ft 382 kts 214°
2026-05-04 03:34 35.14716 -115.56365 27724 ft 384 kts 215°
2026-05-04 03:34 35.12485 -115.58105 27812 ft 373 kts 223°
2026-05-04 03:34 35.10614 -115.60197 27855 ft 360 kts 230°
2026-05-04 03:35 35.08881 -115.62384 27854 ft 357 kts 230°
2026-05-04 03:35 35.07161 -115.64568 27874 ft 356 kts 230°
2026-05-04 03:35 35.05452 -115.66747 27841 ft 355 kts 231°
2026-05-04 03:35 35.03735 -115.68950 27846 ft 364 kts 231°
2026-05-04 03:36 35.01964 -115.71229 27847 ft 376 kts 230°
2026-05-04 03:36 35.00135 -115.73575 27848 ft 385 kts 230°
2026-05-04 03:36 34.98276 -115.75949 27847 ft 388 kts 230°
2026-05-04 03:36 34.96402 -115.78329 27833 ft 389 kts 230°
2026-05-04 03:37 34.94525 -115.80705 27838 ft 389 kts 230°
2026-05-04 03:37 34.92648 -115.83084 27824 ft 389 kts 230°
2026-05-04 03:37 34.90796 -115.85434 27825 ft 389 kts 230°
2026-05-04 03:37 34.88921 -115.87816 27824 ft 389 kts 230°
2026-05-04 03:38 34.87045 -115.90196 27809 ft 389 kts 230°
2026-05-04 03:38 34.85167 -115.92574 27813 ft 389 kts 230°
2026-05-04 03:38 34.83292 -115.94951 27812 ft 389 kts 230°
2026-05-04 03:38 34.81419 -115.97328 27827 ft 389 kts 230°
2026-05-04 03:39 34.79547 -115.99702 27797 ft 388 kts 230°
2026-05-04 03:39 34.77681 -116.02062 27799 ft 387 kts 230°
2026-05-04 03:39 34.75816 -116.04424 27802 ft 386 kts 230°
2026-05-04 03:39 34.73966 -116.06778 27806 ft 385 kts 230°
2026-05-04 03:40 34.72117 -116.09138 27807 ft 385 kts 230°
2026-05-04 03:40 34.70273 -116.11493 27806 ft 385 kts 231°
2026-05-04 03:40 34.68429 -116.13845 27797 ft 384 kts 230°
2026-05-04 03:40 34.66585 -116.16193 27798 ft 384 kts 230°
2026-05-04 03:41 34.64742 -116.18539 27798 ft 383 kts 230°
2026-05-04 03:41 34.62903 -116.20876 27796 ft 383 kts 230°
2026-05-04 03:41 34.61068 -116.23201 27794 ft 383 kts 230°
2026-05-04 03:41 34.59226 -116.25538 27793 ft 384 kts 230°
2026-05-04 03:42 34.57388 -116.27870 27790 ft 382 kts 230°
2026-05-04 03:42 34.55545 -116.30206 27791 ft 381 kts 230°
2026-05-04 03:42 34.53708 -116.32533 27791 ft 382 kts 230°
2026-05-04 03:42 34.51868 -116.34862 27790 ft 382 kts 230°
2026-05-04 03:43 34.50031 -116.37184 27794 ft 382 kts 230°
2026-05-04 03:43 34.48188 -116.39508 27785 ft 382 kts 230°
2026-05-04 03:43 34.46347 -116.41827 27770 ft 381 kts 230°
2026-05-04 03:43 34.44512 -116.44137 27774 ft 380 kts 230°
2026-05-04 03:44 34.42682 -116.46452 27779 ft 379 kts 232°
2026-05-04 03:44 34.41165 -116.48982 27776 ft 374 kts 243°
2026-05-04 03:44 34.39998 -116.51789 27782 ft 373 kts 245°
2026-05-04 03:44 34.38847 -116.54602 27781 ft 373 kts 245°
2026-05-04 03:45 34.37690 -116.57415 27753 ft 373 kts 244°
2026-05-04 03:45 34.36532 -116.60223 27755 ft 373 kts 244°
2026-05-04 03:45 34.35369 -116.63036 27775 ft 374 kts 244°
2026-05-04 03:45 34.34205 -116.65855 27777 ft 374 kts 244°
2026-05-04 03:46 34.33043 -116.68677 27776 ft 375 kts 245°
2026-05-04 03:46 34.31892 -116.71512 27488 ft 376 kts 245°
2026-05-04 03:46 34.30750 -116.74355 27079 ft 374 kts 245°
2026-05-04 03:46 34.29619 -116.77183 26698 ft 373 kts 245°
2026-05-04 03:47 34.28490 -116.80007 26308 ft 372 kts 245°
2026-05-04 03:47 34.27378 -116.82778 26091 ft 359 kts 245°
2026-05-04 03:47 34.26308 -116.85438 25867 ft 347 kts 245°
2026-05-04 03:47 34.25259 -116.88036 25462 ft 342 kts 245°
2026-05-04 03:48 34.24218 -116.90613 24969 ft 341 kts 244°
2026-05-04 03:48 34.23175 -116.93188 24473 ft 341 kts 244°
2026-05-04 03:48 34.22132 -116.95763 24082 ft 342 kts 244°
2026-05-04 03:48 34.21111 -116.98360 23681 ft 343 kts 248°
2026-05-04 03:49 34.20344 -117.01089 23170 ft 344 kts 251°
2026-05-04 03:49 34.19602 -117.03845 22652 ft 345 kts 251°
2026-05-04 03:49 34.18864 -117.06593 22149 ft 344 kts 251°
2026-05-04 03:49 34.18131 -117.09316 21817 ft 337 kts 251°
2026-05-04 03:50 34.17403 -117.12012 21197 ft 336 kts 251°
2026-05-04 03:50 34.16698 -117.14615 20661 ft 326 kts 251°
2026-05-04 03:50 34.15986 -117.17238 20179 ft 330 kts 251°
2026-05-04 03:50 34.15265 -117.19867 19804 ft 328 kts 251°
2026-05-04 03:51 34.14559 -117.22426 19284 ft 318 kts 251°
2026-05-04 03:51 34.13862 -117.24956 18785 ft 317 kts 251°
2026-05-04 03:51 34.13170 -117.27470 18293 ft 315 kts 251°
2026-05-04 03:51 34.12478 -117.29977 17766 ft 314 kts 250°
2026-05-04 03:52 34.11789 -117.32475 17283 ft 314 kts 250°
2026-05-04 03:52 34.11098 -117.34976 16787 ft 316 kts 250°
2026-05-04 03:52 34.10406 -117.37485 16304 ft 314 kts 250°
2026-05-04 03:52 34.09746 -117.39998 15823 ft 315 kts 251°
2026-05-04 03:53 34.09119 -117.42501 15487 ft 307 kts 251°
2026-05-04 03:53 34.08520 -117.44942 15150 ft 302 kts 251°
2026-05-04 03:53 34.07927 -117.47359 14515 ft 299 kts 251°
2026-05-04 03:53 34.07338 -117.49772 14038 ft 302 kts 253°
2026-05-04 03:54 34.06910 -117.52264 13530 ft 304 kts 256°
2026-05-04 03:54 34.06491 -117.54768 13034 ft 304 kts 256°
2026-05-04 03:54 34.06072 -117.57269 12563 ft 304 kts 256°
2026-05-04 03:54 34.05656 -117.59756 12143 ft 302 kts 256°
2026-05-04 03:55 34.05238 -117.62237 11753 ft 300 kts 256°
2026-05-04 03:55 34.04821 -117.64708 11267 ft 301 kts 256°
2026-05-04 03:55 34.04405 -117.67150 10904 ft 294 kts 256°
2026-05-04 03:55 34.03990 -117.69566 10297 ft 295 kts 256°
2026-05-04 03:56 34.03583 -117.71942 10110 ft 282 kts 256°
2026-05-04 03:56 34.03195 -117.74217 9718 ft 274 kts 256°
2026-05-04 03:56 34.02818 -117.76443 9585 ft 271 kts 257°
2026-05-04 03:56 34.02440 -117.78671 9274 ft 272 kts 257°
2026-05-04 03:57 34.02061 -117.80891 8826 ft 275 kts 257°
2026-05-04 03:57 34.01674 -117.83156 8449 ft 275 kts 257°
2026-05-04 03:57 34.01286 -117.85419 7937 ft 274 kts 257°
2026-05-04 03:57 34.00905 -117.87648 7414 ft 270 kts 257°
2026-05-04 03:58 34.00147 -117.92070 6455 ft 269 kts 257°
2026-05-04 03:58 33.99769 -117.94269 5966 ft 268 kts 257°
2026-05-04 03:58 33.99393 -117.96460 5502 ft 268 kts 258°
2026-05-04 03:59 33.99013 -117.98674 5041 ft 272 kts 258°
2026-05-04 03:59 33.98633 -118.00887 4693 ft 270 kts 258°
2026-05-04 03:59 33.98249 -118.03100 4361 ft 264 kts 258°
2026-05-04 03:59 33.97886 -118.05186 4201 ft 245 kts 258°
2026-05-04 04:00 33.97552 -118.07109 4098 ft 224 kts 257°
2026-05-04 04:00 33.97242 -118.08895 4002 ft 215 kts 257°
2026-05-04 04:00 33.96938 -118.10648 3909 ft 213 kts 257°
2026-05-04 04:00 33.96612 -118.12392 3817 ft 213 kts 252°
2026-05-04 04:01 33.96242 -118.14111 3752 ft 212 kts 258°
2026-05-04 04:01 33.96011 -118.15826 3660 ft 201 kts 262°
2026-05-04 04:01 33.95839 -118.17459 3513 ft 192 kts 262°
2026-05-04 04:01 33.95681 -118.19022 3314 ft 182 kts 262°
2026-05-04 04:02 33.95534 -118.20488 3057 ft 170 kts 262°
2026-05-04 04:02 33.95399 -118.21839 2836 ft 155 kts 262°
2026-05-04 04:02 33.95275 -118.23062 2644 ft 142 kts 263°
2026-05-04 04:02 33.95160 -118.24211 2462 ft 136 kts 263°
2026-05-04 04:03 33.95047 -118.25327 2273 ft 133 kts 263°
2026-05-04 04:03 33.94936 -118.26423 2095 ft 133 kts 263°
2026-05-04 04:03 33.94826 -118.27518 1917 ft 130 kts 263°
2026-05-04 04:03 33.94716 -118.28600 1749 ft 131 kts 263°
2026-05-04 04:04 33.94606 -118.29692 1567 ft 132 kts 262°
2026-05-04 04:04 33.94496 -118.30784 1391 ft 131 kts 262°
2026-05-04 04:04 33.94388 -118.31850 1214 ft 131 kts 262°
2026-05-04 04:04 33.94283 -118.32942 1046 ft 132 kts 264°
2026-05-04 04:05 33.94177 -118.34038 854 ft 133 kts 262°
2026-05-04 04:05 33.94061 -118.35149 674 ft 136 kts 261°
2026-05-04 04:05 33.93948 -118.36277 480 ft 136 kts 262°
2026-05-04 04:05 33.93831 -118.37404 281 ft 133 kts 262°
2026-05-04 04:06 33.93712 -118.38492 114 ft 130 kts 262°
2026-05-04 04:06 33.93619 -118.39432 93 ft 92 kts 263°
2026-05-04 04:06 33.93561 -118.39990 96 ft 44 kts 262°
2026-05-04 04:06 33.93533 -118.40355 94 ft 45 kts 271°
2026-05-04 04:07 33.93577 -118.40595 94 ft 20 kts 283°
2026-05-04 04:07 33.93595 -118.40765 95 ft 21 kts 268°
2026-05-04 04:07 33.93643 -118.40883 95 ft 16 kts 331°
2026-05-04 04:07 33.93736 -118.40906 94 ft 8 kts 356°
2026-05-04 04:08 33.93766 -118.40907 96 ft 5 kts 355°
2026-05-04 04:08 33.93799 -118.40912 93 ft 3 kts 351°
2026-05-04 04:08 33.93830 -118.40918 93 ft 7 kts 352°
2026-05-04 04:08 33.93877 -118.40869 93 ft 11 kts 79°
2026-05-04 04:09 33.93884 -118.40761 95 ft 16 kts 84°
2026-05-04 04:09 33.93898 -118.40629 94 ft 11 kts 82°
2026-05-04 04:09 33.93926 -118.40550 93 ft 11 kts 25°
2026-05-04 04:09 33.93993 -118.40577 93 ft 8 kts 296°
2026-05-04 04:10 33.94001 -118.40601 95 ft 0 kts 291°